Regional Weather Roundup
Issued by NWS

Home | Current Version | Previous Version | Text Only | Print | Product List | Glossary Off
Versions: 1 2 3 4 5 6 7 8 9 10 11 12 13 14 15 16 17 18 19 20 21 22 23 24 25 26 27 28 29 30 31 32 33 34 35 36 37 38 39 40 41 42 43 44 45 46 47 48 49 50

000
ASUS43 KMPX 111501
RWRMN
WEATHER ROUNDUP FOR MINNESOTA
NATIONAL WEATHER SERVICE TWIN CITIES/CHANHASSEN MN
900 AM CST THU FEB 11 2016


NOTE: "FAIR" INDICATES FEW OR NO CLOUDS BELOW 12,000 FEET WITH NO
SIGNIFICANT WEATHER AND/OR OBSTRUCTIONS TO VISIBILITY. N/A MEANS
CURRENT SKY AND/OR WEATHER CONDITIONS ARE NOT AVAILABLE.

MNZ060>063-068>070-111600-
   Twin Cities Metro

CITY           SKY/WX    TMP DP  RH WIND       PRES   REMARKS
TWIN CITIES    CLOUDY     6  -3  66 CALM      30.33S
ST PAUL        CLOUDY     5  -3  69 CALM      30.35F
CRYSTAL        CLOUDY     4  -3  73 CALM      30.32S
BLAINE         SUNNY      3  -2  78 CALM      30.32S
LAKEVILLE      CLOUDY     0  -4  85 CALM      30.31F
EDEN PRAIRIE   CLOUDY     5  -3  69 CALM      30.31F
SOUTH ST PAUL  CLOUDY     5  -3  70 CALM      30.33F
LAKE ELMO      FAIR      -2  -8  78 CALM      30.33S
$$
MNZ001>005-007-008-013>017-022>024-027-028-111600-
   Northwest Minnesota

CITY           SKY/WX    TMP DP  RH WIND       PRES   REMARKS
BEMIDJI        CLOUDY   -11 -16  80 CALM      30.21F
HALLOCK        CLOUDY     5   0  78 S6        30.25S WCI  -6
ROSEAU         CLOUDY    -6  -9  84 CALM      30.23S
WARROAD        CLOUDY    -6  -9  84 SW3       30.22S
THIEF RVR FALL CLOUDY     1  -4  78 S3        30.24S
CROOKSTON      CLOUDY     3   0  85 S5        30.27S WCI  -6
FOSSTON        CLOUDY    -4  -9  77 CALM      30.22F
DETROIT LAKES  CLOUDY     3   0  85 SE6       30.23F WCI  -8
MOORHEAD       CLOUDY     7  -2  66 CALM      30.27S
PARK RAPIDS    CLOUDY   -12 -17  78 SW3       30.22S
MAHNOMEN       CLOUDY    -2  -7  77 SE3       30.23S
$$
MNZ006-009>011-018-025>026-111600-
   North Central Minnesota

CITY           SKY/WX    TMP DP  RH WIND       PRES   REMARKS
BAUDETTE       CLOUDY    -6 -12  75 SW3       30.20F
FLAG ISLAND    CLOUDY    -2  -9  71 CALM      30.21S
INTL FALLS     CLOUDY    -4 -10  75 SW6       30.21S WCI -16
WASKISH        CLOUDY    -6  -9  84 CALM      30.22F
LONGVILLE      CLOUDY   -11 -17  77 CALM      30.23F
GRAND RAPIDS   CLOUDY    -9 -17  70 CALM      30.21F
CRANE LAKE     CLOUDY    -8 -11  84 S1        30.24F
ORR            CLOUDY    -8 -15  71 CALM      30.19R
COOK           CLOUDY    -8 -13  77 SW3       30.22S
WALKER         CLOUDY   -14 -19  78 CALM      30.23S
$$
MNZ012-019>021-037-111600-
   Northeast Minnesota

CITY           SKY/WX    TMP DP  RH WIND       PRES   REMARKS
DULUTH         CLOUDY    -7 -13  75 W9        30.21R WCI -24
ELY            CLOUDY   -11 -15  84 W3        30.19S
HIBBING        CLOUDY   -12 -16  82 CALM      30.22S
EVELETH        CLOUDY    -9 -17  70 CALM      30.22S
DULUTH HARBOR  CLOUDY    -4  -9  77 SW8       30.32S WCI -19
TWO HARBORS    CLOUDY     1  -8  66 W5        30.21S WCI  -8
SILVER BAY     CLOUDY     0  -8  71 CALM      30.19F
GRAND MARAIS     N/A      3  -4  72 W8        30.24S WCI -10
G MARAIS ARPRT SUNNY     -4 -11  71 W3        30.09S
$$
MNZ029>031-032-039>041-046>048-054>057-064-111600-
   West Central Minnesota

CITY           SKY/WX    TMP DP  RH WIND       PRES   REMARKS
FERGUS FALLS   CLOUDY     7   3  85 S3        30.28F
WHEATON        CLOUDY     9   5  85 SE3       30.28R
MORRIS         CLOUDY     9   3  78 SE5       30.25R WCI   0
ALEXANDRIA     CLOUDY     6  -3  66 SE8       30.23F WCI  -7
ELBOW LAKE     CLOUDY     7   3  84 E5        30.24F WCI  -2
WADENA         CLOUDY     0  -6  78 SE5       30.23S WCI -10
GLENWOOD       CLOUDY     5   0  78 SE3       30.25S
APPLETON       CLOUDY     5   1  85 CALM      30.27R
BENSON         CLOUDY     7   3  85 CALM      30.26S
ORTONVILLE     CLOUDY     5   1  85 CALM      30.26R
MADISON        CLOUDY     9   5  85 CALM      30.27S
WILLMAR        CLOUDY     9   7  92 SE5       30.27F WCI   0
$$
MNZ033>034-036-042>043-049>051-058-059-111600-
   Central Minnesota

CITY           SKY/WX    TMP DP  RH WIND       PRES   REMARKS
ST CLOUD       CLOUDY     2  -5  72 CALM      30.29F
SAUK CENTRE    CLOUDY     0  -4  82 CALM      30.26F
PAYNESVILLE    CLOUDY     6  -2  70 SE3       30.28S
AITKIN         CLOUDY    -8 -15  71 CALM      30.25S
PINE RIVER       N/A    -11 -17  77 CALM      30.27S
BRAINERD       MOSUNNY   -9 -14  78 CALM      30.26F HAZE
STAPLES        CLOUDY    -4  -9  77 CALM      30.25R
LONG PRAIRIE   CLOUDY    -2  -6  84 CALM      30.26S
LITTLE FALLS   CLOUDY    -2  -8  78 CALM      30.28F
LITCHFIELD     CLOUDY     5   0  78 CALM      30.29S
BUFFALO        CLOUDY     4  -3  73 CALM      30.32S
MAPLE LAKE     CLOUDY     6   0  77 CALM      30.31S
$$
MNZ037-044-045-052-053-111600-
   East Central Minnesota

CITY           SKY/WX    TMP DP  RH WIND       PRES   REMARKS
PRINCETON      CLOUDY     1  -4  78 CALM      30.29S
MORA           CLOUDY     0  -8  71 CALM      30.31F
CAMBRIDGE      MOSUNNY    1  -8  66 CALM      30.29S
RUSH CITY      CLOUDY     1  -8  68 CALM      30.32R
MOOSE LAKE     PTSUNNY  -13 -18  77 CALM      30.27S
HINCKLEY       FAIR       0  -8  71 CALM      30.30S
CLOQUET        CLOUDY    -6 -13  71 W6        30.23F WCI -18
MCGREGOR       CLOUDY    -8 -11  84 CALM      30.27R
$$
MNZ071>073-080-081-089-090-097-098-111600-
   Southwest Minnesota

CITY           SKY/WX    TMP DP  RH WIND       PRES   REMARKS
MONTEVIDEO     CLOUDY     7   3  85 CALM      30.29S
GRANITE FALLS  CLOUDY     8   5  88 CALM      30.29F
CANBY          FLURRIES  14  10  85 SE7       30.26F WCI   4
MARSHALL       CLOUDY     8   5  87 S6        30.27F WCI  -2
REDWOOD FALLS  CLOUDY     3  -1  83 S3        30.29F
OLIVIA         CLOUDY    10   5  79 SE3       30.28F
PIPESTONE      CLOUDY    14   3  62 S8        30.20F WCI   3
WINDOM         CLOUDY    -2  -8  78 CALM      30.26S
WORTHINGTON    CLOUDY     9   0  66 S8        30.25F WCI  -4
JACKSON        CLOUDY     9   3  78 S6        30.26S WCI  -1
TRACY          CLOUDY     9   4  79 S5        30.25F WCI   1
SLAYTON        CLOUDY    10   8  95 S7        30.23F WCI  -2
$$
MNZ065>067-074>077-082>085-091>093-111600-
   South Central Minnesota

CITY           SKY/WX    TMP DP  RH WIND       PRES   REMARKS
MANKATO        CLOUDY     1  -2  85 SE3       30.31R
NEW ULM        CLOUDY     1  -2  85 CALM      30.30S
ST JAMES       CLOUDY     0  -4  85 CALM      30.30S
FAIRMONT       CLOUDY    -2  -6  84 S3        30.28R
GLENCOE        CLOUDY     6   2  84 CALM      30.30S
FARIBAULT        N/A      0  -4  85 CALM      30.31S
OWATONNA       CLOUDY     3  -2  78 CALM      30.30S
WASECA         CLOUDY     0  -4  85 CALM      30.32S
ALBERT LEA       N/A      1  -2  85 CALM      30.29S
$$
MNZ078>079-086>088-094>096-111600-
   Southeast Minnesota

CITY           SKY/WX    TMP DP  RH WIND       PRES   REMARKS
ROCHESTER      CLOUDY     1  -7  68 W6        30.28S WCI -10
RED WING       CLOUDY     1  -6  71 CALM      30.33S
STANTON        CLOUDY    -4  -9  78 SW3       30.31F
DODGE CENTER   CLOUDY     5  -2  72 SW3       30.27S
WINONA         CLOUDY     3  -4  72 CALM      30.37R
AUSTIN         CLOUDY     0  -6  78 CALM      30.29S
PRESTON        CLOUDY     1  -7  69 NW3       30.29S
$$
ABBREVIATIONS USED IN REMARKS
   TC - TEMPERATURES IN CELSIUS
  WCI - WIND CHILL INDEX
   HX - HEAT INDEX
  VSB - VISIBILITY
$$



USA.gov is the U.S. government's official web portal to all federal, state and local government web resources and services.